SARAL

Last updated on Sat Apr 13 2024 01:02:24 GMT+0100 (British Summer Time)

1 39086U 13009A 24103.55855008 .00000169 00000+0 78823-4 0 9992 2 39086 98.5515 289.5827 0002993 108.9650 251.1859 14.32378863581688
UTC large
Height (km)
Speed (km/s)
/
Latitude / Longitude
Inclination (degrees)
Orbital Period (minutes)
Azimuth
Elevation
Range (km)
Doppler Factor

Next 0 passes for location: London (51.5072 / 0.1276)

Sorry there are no passes over London.